Regional Weather Roundup
Issued by NWS

Home | Current Version | Previous Version | Text Only | Print | Product List | Glossary On
Versions: 1 2 3 4 5 6 7 8 9 10 11 12 13 14 15 16 17 18 19 20 21 22 23 24 25 26 27 28 29 30 31 32 33 34 35 36 37 38 39 40 41 42 43 44 45 46 47 48 49 50
601
ASHW40 PHFO 061443
RWRHI

WEATHER ROUNDUP FOR HAWAII
NATIONAL WEATHER SERVICE HONOLULU HI
400 AM HST SAT FEB 06 2016

THIS IS AN AUTOMATED REPORT THAT HAS NOT BEEN QUALITY CONTROLLED.

NOTE..."FAIR" INDICATES FEW OR NO CLOUDS BELOW 12,000 FEET WITH NO
SIGNIFICANT WEATHER AND/OR OBSTRUCTIONS TO VISIBILITY.

* - THESE SITES REPORT LIMITED FIELDS

HIZ001>004-061500-
KAUAI-NIIHAU-

CITY           SKY/WX    TMP DP  RH WIND       PRES   REMARKS
LIHUE APT      CLOUDY    68  62  81 W8        29.99R
PORT ALLEN*      N/A     63 N/A N/A NE5         N/A
POIPU*           N/A     63 N/A N/A NW3         N/A
PRINCEVILLE*     N/A     66 N/A N/A S2          N/A
KOKOLE POINT*  NOT AVBL
MOLOAA DAIRY*    N/A     70  64  83 NW3         N/A
WAIMEA HTS*      N/A     70  59  68 N1G9        N/A
PUU OPAE*        N/A     63  59  88 N6G18       N/A
PUU LUA*       NOT AVBL
MAKAHA RIDGE*    N/A     64  61  88 CALM        N/A
$$

HIZ005>011-061500-
OAHU-

CITY           SKY/WX    TMP DP  RH WIND       PRES   REMARKS
HONOLULU       MOCLDY    73  65  75 N3        29.96S
KALAELOA       MOCLDY    69  64  84 NE3       29.97F
KANEOHE MCB    MOCLDY    70  68  93 CALM      29.93S
WHEELER FIELD  MOCLDY    65  64  98 CALM      29.96S
BELLOWS*         N/A    N/A N/A N/A SW3         N/A
KAHUKU*          N/A    N/A N/A N/A VRB1        N/A
WHEELER*         N/A    N/A N/A N/A N2          N/A
WAIANAE HARBOR   N/A    N/A N/A N/A E2          N/A
DILLINGHAM*      N/A     90  82  79 MISG        N/A  HX 111
KAHUKU TRN*      N/A     68  64  88 S3          N/A
KAWAILOA*        N/A     66  61  82 E5          N/A
KII*             N/A     70  66  88 SW2         N/A
MAKUA RANGE*     N/A     82  72  69 SE5         N/A
OAHU FOREST NW NOT AVBL
SCHOFIELD BRK*   N/A     63  63 100 MISG        N/A
SCHOFIELD S*   NOT AVBL
WAIANAE VLY*   NOT AVBL
KUAOKALA*      NOT AVBL
HONOULIUULI*   NOT AVBL
MOKUOLOE IS*   NOT AVBL
PALEHUA*         N/A     64  59  82 SE1         N/A
WAIAWA PHB*    NOT AVBL
$$

HIZ012>013-061500-
MOLOKAI-

CITY           SKY/WX    TMP DP  RH WIND       PRES   REMARKS
MOLOKAI AIRPT  CLOUDY    70  65  84 NE3       29.97F
KALAUPAPA      NOT AVBL
MAKAPULAPAI*     N/A     72  66  83 W3          N/A
MOLOKAI 1*     NOT AVBL
PUU ALII*        N/A     56  56 100 CALM        N/A
$$

HIZ016-061500-
KAHOOLAWE-

CITY           SKY/WX    TMP DP  RH WIND       PRES   REMARKS
KAHOOLAWE*       N/A     66 N/A N/A SE1         N/A
HAKIOAWA*        N/A     65  64  97 MISG      30.38F
HONOKANAIA*      N/A     72  68  87 NE6         N/A
KANELOA*         N/A     70  66  88 SE3       30.03F
KEALIALALO*      N/A     68  66  94 S3        29.96S
LUA MAKIKA*    NOT AVBL
$$

HIZ014>015-061500-
LANAI-

CITY           SKY/WX    TMP DP  RH WIND       PRES   REMARKS
LANAI CITY     FAIR      64  62  93 NE6       30.01F
LANAI 1*       NOT AVBL
$$

HIZ017>028-061500-
MAUI-

CITY           SKY/WX    TMP DP  RH WIND       PRES   REMARKS
KAHULUI        CLEAR     65  63  93 MISG      29.95F
KAPALUA-W MAUI NOT AVBL
HANA AIRPORT   CLEAR     64  32  29 S3        29.97S
HANA*            N/A     66 N/A N/A S3          N/A
HALEAKALA SUMM   N/A     43   1  17 SW7         N/A
MAALAEA BAY*     N/A     66 N/A N/A SW5         N/A
HALEAKALA*     NOT AVBL
KAUPO GAP*       N/A     54  50  87 N9          N/A
KULA 1*          N/A     46  43  87 E5          N/A
$$

HIZ023>026-061500-
BIG ISLAND OF HAWAII COAST AND LOWER SLOPES-

CITY           SKY/WX    TMP DP  RH WIND       PRES   REMARKS
KAILUA KONA    MOCLDY    73  66  78 E6        29.96F
HILO           CLEAR     65  56  72 SW8       29.99F
HONOKAA*         N/A     61 N/A N/A VRB1        N/A
KAWAIHAE MWT*    N/A     73 N/A N/A SE6         N/A
KAWAIHAE*        N/A     73 N/A N/A E2        29.94F
SOUTH POINT*     N/A     63 N/A N/A W9          N/A
UPOLU AIRPORT*   N/A    N/A N/A N/A SE8         N/A
KAMUELA*       SUNNY     52  48  87 E6        30.06F
HAKALAU*         N/A    N/A N/A N/A W5          N/A
KALOKO-HONOKO*   N/A     72  61  68 CALM      29.95F
PALI 2*          N/A     57  54  88 VRB9        N/A
KEALAKOMO*       N/A     68  63  83 N5          N/A
KAUPULEHU*       N/A     64  59  82 SE7         N/A
KAPAPALA*        N/A     56  51  84 NW6         N/A
LOWER KAHUKU*    N/A     52 N/A N/A N3          N/A
PUHE CS*         N/A     72  59  64 E5          N/A
PUHO CS*         N/A     68  54  60 E3          N/A
PTA KEAMUKU*     N/A     57  46  67 CALM        N/A
WAIKOLOA*        N/A     63  46  55 SE3G12      N/A
$$

HIZ027>028-061500-
BIG ISLAND OF HAWAII INTERIOR AND SUMMMITS-

CITY           SKY/WX    TMP DP  RH WIND       PRES   REMARKS
BRADSHAW FIELD CLOUDY    41  25  54 SE5       30.28F
MK VISITOR CEN   N/A     45  -8  11 VRB3        N/A
MAUNA KEA*       N/A     36 -31   5 N23         N/A  WCI  24
MAUNA LOA*       N/A     43 -51   1 MISG        N/A
MAUNA LOA 1*   NOT AVBL
PTA KIPUKA*      N/A     66  64  94 E5          N/A
PTA RANGE 17*    N/A     45  36  70 E8          N/A
PTA WEST*        N/A     48  39  71 SE14        N/A
NENE CABIN*      N/A    N/A N/A N/A N7          N/A
AHUMOA*          N/A    N/A N/A N/A E8          N/A
PTA PORTABLE*  NOT AVBL
PUU MALI*        N/A     46  37  71 S8          N/A
$$

HIC003-061500-
NORTHWEST ISLANDS-

CITY           SKY/WX    TMP DP  RH WIND       PRES   REMARKS
MIDWAY ISLAND  CLEAR     57  43  58 N15G22    30.32R
MIDWAY NOS*      N/A     61 N/A N/A MISG      30.29S
FRENCH FRIGATE NOT AVBL
$$

PHZ110>124-180-061500-
BUOY REPORTS

STATION/POSITION TIME  TEMP    WIND        PRES    WAVE   SWELL
                       AIR SEA DIR/SP/G            HT/PER HT/DIR
                 (UTC) (F)     (DEG/KT/KT) (MB)    (FT/S) (FT/D)
BUOY 51001       1400   74 76  320/ 14/ 21 1014.1R
BUOY 51101       1350   75 76  270/ 14/ 16 1014.0R   7/11   5/320
BUOY 51100       NOT AVBL
BUOY 51002       1350   76 77  100/ 12/ 14 1014.2F   7/ 9   7/110
BUOY 51003       1350   77 78   40/  6/  6 1014.0F   5/11   5/330
BUOY 51004       1350   72 77  100/ 16/ 21 1014.5R   8/ 8   5/100
BARBERS PT BUOY  NOT AVBL
WAIMEA BAY BUOY  1404      78                N/A     5/11   3/330
KAILUA BAY BUOY  1411      77                N/A     5/11   3/350
LANAI BUOY       NOT AVBL
BARBERS PT 2     1403      78                N/A     4/11   2/300
PAUWELA MAUI     1407      76                N/A     6/11   3/330
HILO             NOT AVBL
KANEOHE BAY BUOY 1406      77                N/A     5/11   3/360
HANALEI KAUAI    1401      77                N/A     5/11   3/310
KAHULUI HARBOR   1400   70 78  180/  3/  4 1013.8F
HONOLULU HARBOR  1400   75 77     CALM     1014.9F
KILO NALU        NOT AVBL
HILO HARBOR      1400   65 77  190/  7/  9 1015.0F
MOKUOLOE         1300   72 79  230/  2/  3 1014.2F
NAWILIWILI       1400   66 79  260/  5/  6 1015.3R
WHOTS BUOY       NOT AVBL
BUOY 51028       NOT AVBL
$$

......................KEY........................................
  SKY/WX - SKY CONDITIONS/PRESENT WEATHER
  TMP    - TEMPERATURE IN FAHRENHEIT
  DWPT   - DEWPOINT IN FAHRENHEIT
  RH     - RELATIVE HUMIDITY IN PERCENT
  WIND   - DIRECTION AND SPEED /MPH FOR ISLANDS...KTS FOR BUOYS/
  PRES   - MEAN SEA LEVEL PRESSURE IN INCHES OF HG
  VSB    - VISIBILITY IN MILES
  HX     - HEAT INDEX
  WCI    - WIND CHILL INDEX
  VRB    - VARIABLE WIND DIRECTION
  N/A    - NOT AVAILABLE




USA.gov is the U.S. government's official web portal to all federal, state and local government web resources and services.